Tracking 20041 objects as of 22-Nov-2019
Live streaming from Space Station
objects crossing your sky now

COSMOS 1503

Track COSMOS 1503 now!
10-day predictions
COSMOS 1503 is classified as:


NORAD ID: 14401
Int'l Code: 1983-103A
Perigee: 782.1 km
Apogee: 800.9 km
Inclination: 74.0 °
Period: 100.5 minutes
Semi major axis: 7162 km
RCS: 2.2071 m2 (large)
Launch date: October 12, 1983
Source: Commonwealth of Independent States (former USSR) (CIS)
Launch site: PLESETSK MISSILE AND SPACE COMPLEX (PKMTR)
aabbcc
Your satellite tracking list
Your tracking list is empty




NASA's NSSDC Master Catalog

Two Line Element Set (TLE):
1 14401U 83103A   19325.71852387 +.00000019 +00000-0 +16697-4 0  9999
2 14401 074.0427 171.4737 0013080 164.0976 196.0588 14.32203653885941
Source of the keplerian elements: AFSPC